Wind_Speed
10 10 10 11 11 10 9 10 10 10 10 10 10 10 10 11 11 11 9 9 9 9 9 9 8 9 9 9 9 9 9 10 10 11 11 11 11 11 11 11 11 11 11
11 11 11 11 10 10 10 10 10 10 11 11 10 11 11 11 10 9 9 9 9 9 9 9 9 9 9 9 9 9 9 9 10 10 10 11 11 11 11 11 11 11 11
11 11 11 11 10 10 11 10 10 11 11 11 11 11 11 11 10 10 9 10 10 10 10 10 10 10 10 10 10 10 10 10 10 11 11 11 12 12 12 12 12 12 12
11 11 11 11 11 11 11 11 11 11 11 11 11 11 10 10 10 10 10 11 11 11 11 11 11 10 10 10 10 10 10 10 11 11 12 12 13 14 14 14 14 13 13
12 12 12 11 11 11 12 12 12 12 11 11 11 11 10 10 11 11 12 12 11 12 12 11 12 12 12 11 11 11 11 11 10 11 12 12 14 14 15 14 14 14 14
13 13 12 12 12 12 12 12 12 12 11 11 11 11 11 11 11 12 12 12 12 12 13 12 13 13 13 12 11 12 12 11 11 12 12 12 13 12 13 14 14 15 15
12 13 13 13 13 12 13 12 12 12 11 11 11 11 11 12 12 12 12 12 12 12 13 13 13 13 13 12 12 13 13 12 12 12 12 12 12 11 12 14 14 14 15
11 12 13 13 13 12 13 12 11 11 11 11 11 11 11 11 11 12 12 12 12 12 12 12 13 12 12 13 13 13 13 13 13 13 13 13 12 12 12 13 14 14 14
11 12 12 12 12 12 12 12 11 11 11 11 11 12 11 11 11 11 12 12 12 12 13 13 13 13 13 13 13 13 13 13 13 13 13 13 13 13 13 14 15 15 15
12 13 13 12 12 12 12 11 11 11 11 11 12 12 12 12 12 12 12 13 13 14 14 14 14 14 13 13 13 13 13 13 13 13 13 13 13 13 14 14 15 16 16
13 13 13 12 12 12 12 11 11 12 12 12 11 12 13 13 13 13 13 13 13 14 14 14 14 14 13 13 13 13 13 14 14 14 13 13 13 13 14 14 14 15 15
13 13 13 13 12 12 12 12 12 12 13 13 13 13 13 13 13 14 14 14 14 14 14 14 14 15 14 14 15 15 15 14 14 14 14 14 14 14 14 14 14 15 15
14 14 13 13 12 12 12 13 13 13 13 13 14 14 14 14 14 14 14 14 14 14 14 14 15 15 15 15 15 15 15 15 15 15 15 15 15 15 15 14 14 15 15
15 15 14 14 13 13 13 13 13 14 14 14 15 15 15 15 15 14 14 14 14 14 14 15 15 15 16 16 15 15 15 15 16 16 15 15 15 16 16 15 15 15 15
17 16 15 14 14 13 13 13 14 14 15 16 16 15 15 15 15 15 15 15 15 14 15 16 16 16 16 16 16 16 15 16 16 16 16 16 16 16 16 16 16 16 16
17 16 16 15 14 14 14 15 15 16 16 17 17 17 16 16 16 16 16 16 16 16 16 16 16 15 16 16 15 15 15 15 15 15 15 16 16 17 17 17 17 17 18
17 16 16 16 16 16 16 16 17 17 17 17 18 17 16 16 16 17 17 17 17 17 17 16 15 15 16 16 16 16 15 16 16 16 16 17 17 17 17 17 17 17 17
17 17 17 17 17 16 16 17 18 18 17 17 17 17 16 16 17 18 18 17 17 17 17 16 16 16 16 16 16 16 16 16 16 16 16 17 17 17 17 17 17 17 17
17 17 17 17 17 18 18 18 18 18 18 18 18 17 17 17 17 17 17 17 17 17 17 16 16 16 16 16 16 16 16 16 15 16 16 16 17 17 17 17 17 18 18
17 18 18 19 19 19 20 20 19 18 18 18 19 19 18 18 17 17 17 17 17 17 17 17 16 17 17 17 17 16 16 16 15 16 16 17 17 17 17 18 18 18 19
17 17 18 19 20 19 20 20 19 20 20 20 19 19 18 18 18 17 18 18 18 18 18 18 18 17 17 17 17 17 16 16 16 17 17 18 18 18 18 19 19 19 19
19 18 19 20 20 20 20 20 21 21 20 20 19 19 19 19 19 18 18 18 18 18 18 18 18 18 18 18 17 17 17 17 17 18 18 18 18 19 19 19 19 19 19
20 20 20 20 20 20 20 21 21 21 21 20 20 20 20 20 20 19 19 19 18 18 18 18 19 19 19 19 19 19 19 19 18 18 18 18 18 18 19 19 19 19 20
22 22 21 21 21 21 21 22 22 22 22 22 22 22 21 21 20 19 19 19 19 19 19 19 19 20 20 20 20 20 19 20 20 20 19 18 18 19 19 19 20 20 21
23 23 22 22 22 22 22 22 23 23 22 23 23 23 22 22 21 21 21 21 20 20 21 20 20 20 20 20 20 21 20 20 20 20 20 20 19 20 20 20 21 21 22
23 23 23 23 23 24 23 23 22 22 22 23 23 23 23 23 23 23 22 22 22 22 22 22 22 22 22 22 22 22 21 20 20 21 21 21 21 21 21 21 21 21 22
Wind_Direction
285 288 291 292 293 295 295 294 295 295 292 291 288 287 286 280 276 280 280 283 284 287 287 286 287 282 279 278 275 270 267 269 270 272 270 267 264 262 260 259 258 256 255
285 287 288 289 291 292 291 289 291 295 291 288 288 287 286 282 279 277 278 280 285 287 290 291 291 286 280 278 276 275 271 267 268 271 271 268 265 263 261 260 259 255 254
284 289 290 288 290 291 290 287 288 292 292 289 286 287 285 283 276 275 278 281 283 284 285 286 290 286 284 282 277 275 276 273 274 274 273 271 268 267 265 263 261 258 255
281 286 289 289 288 288 287 285 288 290 290 287 285 283 281 281 277 276 281 283 285 284 285 284 283 283 282 282 280 278 280 278 277 277 275 273 270 268 265 261 259 258 256
275 281 285 287 287 287 285 285 289 290 286 282 279 279 281 279 278 279 280 280 282 284 285 281 280 280 281 282 280 279 279 280 277 276 277 277 274 269 261 258 256 257 257
273 277 282 283 283 284 285 287 287 288 284 281 277 278 282 283 280 281 281 281 282 283 284 282 278 279 281 282 282 281 280 279 277 278 278 278 277 270 261 259 258 259 259
273 275 279 281 282 283 286 286 284 285 284 281 278 281 282 282 281 281 282 282 283 283 280 279 279 278 279 278 279 280 280 279 279 280 278 278 278 271 264 263 261 261 260
275 279 281 282 281 283 286 285 280 281 282 279 278 281 283 283 282 280 280 281 282 284 284 280 278 275 277 278 277 277 277 278 278 279 278 277 274 272 270 266 264 262 262
277 280 282 284 283 282 285 284 281 281 281 280 279 279 281 281 282 284 283 282 281 283 283 282 280 278 278 280 279 278 278 277 276 276 277 275 272 270 270 267 265 264 266
274 278 279 280 281 284 284 281 280 280 281 280 280 280 281 283 285 288 285 284 283 283 282 280 279 279 277 278 280 281 279 277 277 277 277 276 274 272 270 268 264 264 266
273 275 276 278 279 282 281 279 279 277 280 281 282 281 281 284 286 288 287 284 283 283 282 280 278 278 278 279 280 280 279 278 277 276 274 274 274 273 272 271 267 266 266
273 276 275 277 280 282 280 275 276 275 277 279 280 280 282 285 285 288 286 286 285 285 284 282 280 281 281 280 281 280 279 278 276 275 273 273 272 271 272 273 271 269 268
273 274 275 276 279 281 280 276 275 276 276 279 280 282 284 287 288 288 286 285 285 284 282 280 282 284 283 281 281 281 280 279 276 276 274 273 273 271 271 271 271 269 268
271 274 275 272 273 276 277 276 276 276 275 280 282 282 283 286 288 288 286 285 284 283 281 281 283 284 283 280 280 279 279 279 278 278 275 273 273 270 268 269 269 268 268
271 274 273 269 269 273 276 276 278 277 275 279 282 282 282 282 284 285 285 283 284 285 285 284 283 284 284 283 280 279 279 278 278 275 275 275 274 272 270 270 269 267 268
269 270 267 267 269 272 275 277 278 278 277 280 281 280 281 282 283 283 283 283 283 284 285 285 283 283 283 283 282 279 279 278 276 274 274 274 273 273 271 271 271 269 268
268 267 268 269 269 271 275 276 278 279 279 280 281 280 280 283 283 283 283 283 282 283 284 283 281 280 282 282 279 279 280 280 277 276 273 273 272 272 272 273 273 273 272
267 266 269 270 270 270 273 273 274 278 279 280 282 281 281 282 283 284 282 282 282 282 283 282 280 279 281 283 282 280 280 280 278 275 273 272 273 273 274 273 273 272 272
268 268 270 270 271 270 273 276 275 276 277 279 279 280 280 281 283 284 280 279 280 282 281 279 279 281 281 282 281 280 280 281 279 276 274 273 274 274 273 273 273 271 271
270 269 269 271 272 273 274 276 276 276 277 278 278 278 278 280 281 282 281 279 278 278 278 278 279 280 280 280 280 280 280 281 280 278 277 275 274 274 272 272 272 272 272
272 270 271 273 273 275 274 273 273 275 276 278 278 277 277 278 279 280 279 278 277 277 277 277 278 279 279 279 280 281 280 280 279 279 280 278 277 275 271 271 272 273 272
272 271 272 273 274 276 276 274 274 274 274 275 276 278 276 276 277 278 278 276 276 276 277 277 277 276 277 278 278 280 279 279 280 279 279 279 278 274 270 271 272 273 273
271 271 272 272 274 275 275 276 275 274 274 274 274 274 274 275 277 277 275 275 275 276 276 275 274 276 276 275 277 278 277 276 277 280 280 280 278 275 272 272 273 273 275
271 270 271 272 273 274 273 274 275 275 275 274 272 272 272 272 273 273 272 273 273 274 274 273 274 275 276 276 276 277 276 274 275 276 277 279 279 277 277 275 274 274 275
272 271 271 273 274 275 275 275 275 275 275 273 271 270 270 271 270 272 271 271 271 271 272 273 275 276 276 277 277 277 275 274 274 275 276 276 278 278 277 276 274 274 275
272 272 272 274 276 276 275 275 275 276 275 274 273 272 271 271 270 271 272 271 270 271 271 272 273 275 276 277 277 277 276 275 275 274 275 276 277 277 275 274 274 274 274
Height
5871 5870 5869 5869 5868 5867 5866 5866 5865 5864 5863 5862 5861 5860 5860 5859 5858 5858 5857 5856 5855 5855 5854 5853 5853 5852 5852 5851 5851 5850 5849 5849 5849 5848 5848 5847 5847 5847 5847 5847 5847 5847 5848
5868 5868 5867 5866 5865 5865 5864 5863 5862 5862 5861 5860 5859 5858 5857 5857 5856 5855 5855 5854 5854 5853 5852 5851 5850 5850 5849 5848 5848 5847 5847 5846 5846 5845 5845 5844 5844 5844 5844 5844 5844 5844 5845
5865 5865 5864 5864 5863 5862 5862 5861 5860 5859 5858 5857 5856 5856 5855 5854 5853 5853 5852 5852 5851 5851 5850 5849 5848 5847 5847 5846 5845 5845 5844 5844 5843 5843 5842 5842 5841 5841 5841 5841 5841 5841 5842
5863 5862 5862 5861 5860 5860 5859 5858 5857 5856 5856 5855 5854 5853 5852 5851 5851 5850 5850 5849 5849 5848 5847 5846 5845 5845 5844 5843 5843 5842 5842 5841 5841 5840 5839 5839 5838 5837 5837 5837 5838 5838 5838
5860 5859 5859 5858 5858 5857 5856 5855 5855 5854 5853 5852 5851 5850 5849 5849 5848 5848 5847 5846 5846 5845 5844 5844 5843 5842 5841 5841 5840 5840 5839 5838 5838 5837 5836 5835 5833 5831 5832 5833 5834 5835 5835
5856 5856 5856 5855 5855 5854 5853 5852 5852 5851 5850 5850 5849 5848 5847 5846 5845 5845 5844 5844 5843 5842 5842 5841 5840 5840 5838 5838 5837 5837 5836 5836 5835 5834 5833 5832 5829 5827 5828 5830 5830 5831 5831
5853 5852 5852 5852 5851 5851 5850 5849 5849 5848 5847 5846 5846 5845 5844 5844 5843 5842 5841 5841 5840 5839 5838 5838 5837 5836 5836 5835 5834 5834 5833 5832 5831 5831 5830 5829 5827 5826 5826 5827 5827 5827 5828
5849 5849 5849 5848 5848 5847 5847 5846 5845 5845 5844 5843 5843 5842 5842 5841 5840 5839 5839 5838 5837 5836 5835 5834 5834 5833 5832 5832 5831 5831 5830 5829 5828 5828 5827 5826 5825 5824 5824 5824 5824 5824 5824
5846 5846 5845 5844 5844 5844 5843 5842 5842 5841 5841 5840 5840 5840 5839 5838 5837 5837 5835 5835 5834 5833 5832 5831 5830 5830 5829 5828 5828 5827 5827 5826 5825 5824 5823 5823 5822 5822 5821 5821 5820 5820 5820
5843 5842 5841 5841 5841 5840 5839 5839 5839 5838 5838 5837 5837 5836 5836 5835 5835 5834 5833 5831 5830 5830 5829 5828 5827 5826 5826 5825 5824 5824 5823 5822 5821 5820 5820 5819 5818 5818 5818 5817 5817 5817 5817
5839 5838 5838 5837 5837 5836 5836 5836 5835 5835 5834 5834 5833 5833 5832 5832 5831 5830 5829 5829 5827 5826 5825 5824 5824 5823 5822 5821 5821 5820 5819 5818 5818 5817 5816 5815 5815 5814 5814 5813 5813 5813 5813
5835 5835 5834 5834 5833 5833 5832 5832 5831 5831 5831 5830 5830 5829 5829 5828 5827 5826 5826 5825 5824 5823 5822 5821 5820 5819 5818 5818 5817 5816 5815 5815 5814 5813 5812 5812 5811 5811 5810 5810 5809 5809 5808
5831 5831 5830 5830 5830 5829 5829 5828 5828 5827 5827 5827 5826 5826 5825 5824 5823 5822 5822 5821 5820 5819 5818 5817 5816 5815 5814 5813 5813 5812 5811 5810 5810 5809 5808 5808 5807 5807 5806 5806 5805 5804 5804
5827 5826 5826 5826 5826 5825 5825 5824 5824 5824 5823 5823 5822 5822 5821 5820 5819 5818 5818 5817 5816 5815 5814 5813 5812 5811 5810 5809 5808 5807 5806 5806 5805 5804 5804 5803 5803 5802 5802 5801 5801 5800 5800
5822 5822 5822 5822 5821 5821 5821 5820 5820 5819 5819 5819 5818 5817 5816 5816 5815 5814 5813 5812 5812 5811 5810 5809 5808 5806 5805 5804 5803 5803 5802 5801 5800 5800 5799 5799 5798 5797 5797 5797 5796 5796 5795
5817 5817 5817 5817 5817 5817 5816 5816 5816 5815 5815 5814 5813 5813 5812 5811 5810 5809 5809 5808 5807 5806 5805 5804 5803 5802 5801 5800 5799 5798 5797 5796 5796 5795 5794 5794 5793 5793 5792 5792 5791 5791 5790
5812 5812 5812 5812 5812 5812 5812 5811 5811 5810 5810 5809 5809 5808 5807 5807 5806 5805 5804 5803 5802 5801 5800 5799 5798 5797 5796 5795 5794 5793 5792 5791 5791 5790 5789 5789 5788 5788 5787 5787 5786 5786 5785
5807 5807 5807 5807 5807 5807 5807 5807 5806 5805 5805 5804 5804 5803 5802 5802 5801 5800 5799 5798 5797 5796 5795 5794 5793 5792 5791 5791 5790 5789 5788 5787 5786 5785 5784 5784 5783 5783 5782 5782 5781 5781 5780
5801 5802 5802 5802 5802 5802 5802 5801 5800 5800 5800 5799 5798 5798 5797 5797 5796 5795 5794 5793 5792 5791 5790 5789 5788 5788 5787 5786 5785 5784 5783 5782 5781 5780 5780 5779 5778 5778 5777 5777 5776 5776 5775
5796 5796 5797 5796 5796 5796 5796 5796 5795 5795 5794 5794 5793 5792 5792 5791 5790 5789 5788 5787 5787 5786 5785 5784 5783 5783 5782 5781 5780 5779 5779 5778 5777 5776 5775 5774 5773 5772 5772 5771 5771 5771 5770
5791 5791 5791 5791 5791 5790 5790 5790 5790 5789 5788 5788 5787 5786 5786 5785 5785 5784 5783 5782 5781 5781 5780 5779 5778 5777 5777 5776 5775 5774 5773 5772 5772 5770 5770 5769 5768 5767 5766 5766 5765 5765 5765
5785 5785 5785 5785 5784 5784 5784 5784 5783 5783 5782 5782 5781 5780 5780 5779 5779 5778 5777 5776 5776 5775 5774 5774 5773 5772 5772 5771 5770 5769 5768 5768 5767 5766 5764 5763 5762 5762 5761 5760 5760 5760 5759
5779 5779 5779 5779 5779 5778 5777 5777 5776 5776 5776 5775 5775 5774 5774 5773 5772 5772 5771 5771 5770 5769 5769 5768 5767 5767 5766 5765 5765 5764 5763 5762 5761 5760 5759 5758 5757 5756 5755 5755 5754 5754 5754
5773 5773 5773 5772 5772 5771 5771 5770 5770 5769 5769 5769 5768 5767 5767 5767 5766 5766 5765 5765 5764 5763 5763 5762 5762 5761 5760 5759 5758 5758 5757 5756 5755 5754 5753 5753 5751 5751 5750 5749 5749 5748 5747
5766 5766 5765 5765 5765 5765 5764 5763 5763 5762 5762 5761 5760 5760 5760 5760 5759 5759 5759 5759 5758 5757 5756 5756 5755 5754 5754 5753 5752 5751 5750 5750 5749 5748 5747 5747 5746 5745 5744 5743 5742 5741 5740
5759 5758 5758 5758 5758 5757 5756 5756 5755 5755 5754 5754 5753 5753 5752 5752 5752 5751 5751 5751 5751 5750 5750 5749 5748 5748 5747 5746 5746 5745 5744 5743 5742 5742 5741 5740 5739 5738 5738 5737 5736 5735 5734